Location: Unspecified
(50.0077°N, 36.2988°E)
Time: 21:49:28
(UTC+00:00)

ISS - Pass Details

Date: 30 September 2020
Orbit: 417 x 420 km, 51.6° (Epoch: 27 October)

Event Time Altitude Azimuth Distance (km) Brightness Sun altitude
Rises 16:44:03 0° 286° (WNW) 2,370 2.0 -15.1°
Reaches altitude 10° 16:46:09 10° 286° (WNW) 1,505 0.5 -15.4°
Maximum altitude 16:49:32 85° 197° (SSW) 427 -3.8 -16.0°
Enters shadow 16:50:36 41° 113° (ESE) 623 -3.4 -16.1°
